Time,TemperatureF,DewpointF,PressureIn,WindDirection,WindDirectionDegrees,WindSpeedMPH,WindSpeedGustMPH,Humidity,HourlyPrecipIn,Conditions,Clouds,dailyrainin,SolarRadiationWatts/m^2,SoftwareType,DateUTC
2013-02-07 00:02:00,39.4,31.1,29.85,NNE,22,0.0,0.0,72,0.00,CLR,SCT,0.00,0.0,WeatherDisplay:10.37,2013-02-07 06:02:00,
2013-02-07 00:07:00,39.4,30.8,29.85,ENE,68,0.0,1.1,71,0.00,CLR,SCT,0.00,0.0,WeatherDisplay:10.37,2013-02-07 06:07:00,
2013-02-07 00:12:00,39.6,31.3,29.85,ENE,68,0.0,0.0,72,0.00,CLR,SCT,0.00,0.0,WeatherDisplay:10.37,2013-02-07 06:12:00,
2013-02-07 00:17:00,39.6,30.9,29.85,ENE,68,0.0,0.0,71,0.00,CLR,SCT,0.00,0.0,WeatherDisplay:10.37,2013-02-07 06:17:00,
2013-02-07 00:23:00,39.6,30.9,29.85,ENE,68,0.0,0.0,71,0.00,CLR,SCT,0.00,0.0,WeatherDisplay:10.37,2013-02-07 06:23:00,
2013-02-07 00:28:00,39.4,31.1,29.85,West,270,1.4,2.3,72,0.00,CLR,SCT,0.00,0.0,WeatherDisplay:10.37,2013-02-07 06:28:00,
2013-02-07 00:33:00,39.2,30.6,29.85,West,270,1.1,1.1,71,0.00,CLR,SCT,0.00,0.0,WeatherDisplay:10.37,2013-02-07 06:33:00,
2013-02-07 00:38:00,39.2,30.6,29.85,West,270,0.0,0.0,71,0.00,CLR,SCT,0.00,0.0,WeatherDisplay:10.37,2013-02-07 06:38:00,
2013-02-07 00:43:00,39.0,30.4,29.85,NW,315,0.0,2.0,71,0.00,CLR,SCT,0.00,0.0,WeatherDisplay:10.37,2013-02-07 06:43:00,
2013-02-07 00:48:00,39.2,30.9,29.85,NW,315,0.9,2.3,72,0.00,CLR,SCT,0.00,0.0,WeatherDisplay:10.37,2013-02-07 06:48:00,
2013-02-07 00:53:00,39.2,31.6,29.85,North,0,2.0,2.3,74,0.00,CLR,SCT,0.00,0.0,WeatherDisplay:10.37,2013-02-07 06:53:00,
2013-02-07 00:58:00,39.4,31.8,29.85,West,270,0.0,1.1,74,0.00,CLR,SCT,0.00,0.0,WeatherDisplay:10.37,2013-02-07 06:58:00,
2013-02-07 01:03:00,39.4,31.8,29.85,North,0,1.6,3.5,74,0.00,CLR,SCT,0.00,0.0,WeatherDisplay:10.37,2013-02-07 07:03:00,
2013-02-07 01:08:00,39.6,32.0,29.85,NNE,22,0.0,2.3,74,0.00,CLR,SCT,0.00,0.0,WeatherDisplay:10.37,2013-02-07 07:08:00,
2013-02-07 01:13:00,39.7,32.1,29.85,NNW,338,0.0,0.0,74,0.00,CLR,SCT,0.00,0.0,WeatherDisplay:10.37,2013-02-07 07:13:00,
2013-02-07 01:18:00,39.7,31.8,29.85,WNW,292,0.0,1.1,73,0.00,CLR,SCT,0.00,0.0,WeatherDisplay:10.37,2013-02-07 07:18:00,
2013-02-07 01:23:00,39.7,31.4,29.85,North,0,0.0,1.1,72,0.00,CLR,SCT,0.00,0.0,WeatherDisplay:10.37,2013-02-07 07:23:00,
2013-02-07 01:29:00,39.6,30.9,29.85,WNW,292,0.0,1.1,71,0.00,CLR,SCT,0.00,0.0,WeatherDisplay:10.37,2013-02-07 07:29:00,
2013-02-07 01:34:00,39.4,30.8,29.85,NW,315,1.4,2.4,71,0.00,CLR,SCT,0.00,0.0,WeatherDisplay:10.37,2013-02-07 07:34:00,
2013-02-07 01:39:00,39.2,30.6,29.85,NW,315,0.0,0.0,71,0.00,CLR,SCT,0.00,0.0,WeatherDisplay:10.37,2013-02-07 07:39:00,
2013-02-07 01:44:00,39.0,30.8,29.85,WNW,292,1.6,2.3,72,0.00,CLR,SCT,0.00,0.0,WeatherDisplay:10.37,2013-02-07 07:44:00,
2013-02-07 01:49:00,38.8,30.9,29.85,WNW,292,0.0,2.3,73,0.00,CLR,SCT,0.00,0.0,WeatherDisplay:10.37,2013-02-07 07:49:00,
2013-02-07 01:54:00,38.8,30.9,29.85,WNW,292,0.9,2.3,73,0.00,CLR,SCT,0.00,0.0,WeatherDisplay:10.37,2013-02-07 07:54:00,
2013-02-07 01:59:00,38.5,30.6,29.85,West,270,1.1,2.2,73,0.00,CLR,SCT,0.00,0.0,WeatherDisplay:10.37,2013-02-07 07:59:00,
2013-02-07 02:04:00,38.5,30.9,29.85,NNW,338,1.1,2.3,74,0.00,CLR,SCT,0.00,0.0,WeatherDisplay:10.37,2013-02-07 08:04:00,
2013-02-07 02:10:00,38.3,30.7,29.88,NW,315,2.4,3.6,74,0.00,CLR,SCT,0.00,0.0,WeatherDisplay:10.37,2013-02-07 08:10:00,
2013-02-07 02:15:00,38.1,30.9,29.88,North,0,2.4,4.0,75,0.00,CLR,SCT,0.00,0.0,WeatherDisplay:10.37,2013-02-07 08:15:00,
2013-02-07 02:20:00,37.9,30.7,29.88,NW,315,3.8,5.8,75,0.00,CLR,SCT,0.00,0.0,WeatherDisplay:10.37,2013-02-07 08:20:00,
2013-02-07 02:25:00,37.8,30.5,29.85,North,0,1.1,4.6,75,0.00,CLR,SCT,0.00,0.0,WeatherDisplay:10.37,2013-02-07 08:25:00,
2013-02-07 02:30:00,37.6,30.4,29.85,North,0,2.0,2.6,75,0.00,CLR,SCT,0.00,0.0,WeatherDisplay:10.37,2013-02-07 08:30:00,
2013-02-07 02:35:00,37.6,30.7,29.85,West,270,1.6,2.3,76,0.00,CLR,SCT,0.00,0.0,WeatherDisplay:10.37,2013-02-07 08:35:00,
2013-02-07 02:40:00,37.6,30.7,29.91,NNW,338,1.6,2.3,76,0.00,CLR,SCT,0.00,0.0,WeatherDisplay:10.37,2013-02-07 08:40:00,
2013-02-07 02:45:00,37.6,31.0,29.91,NNW,338,1.4,2.9,77,0.00,CLR,SCT,0.00,0.0,WeatherDisplay:10.37,2013-02-07 08:45:00,
2013-02-07 02:50:00,37.6,31.0,29.91,WNW,292,2.2,3.5,77,0.00,CLR,SCT,0.00,0.0,WeatherDisplay:10.37,2013-02-07 08:50:00,
2013-02-07 02:55:00,37.6,31.0,29.85,WSW,248,1.6,3.5,77,0.00,CLR,SCT,0.00,0.0,WeatherDisplay:10.37,2013-02-07 08:55:00,
2013-02-07 03:01:00,37.8,31.2,29.85,North,0,2.4,4.0,77,0.00,CLR,SCT,0.00,0.0,WeatherDisplay:10.37,2013-02-07 09:01:00,
2013-02-07 03:06:00,37.8,31.2,29.85,NNE,22,1.6,5.4,77,0.00,CLR,SCT,0.00,0.0,WeatherDisplay:10.37,2013-02-07 09:06:00,
2013-02-07 03:11:00,37.8,31.2,29.88,NNE,22,2.0,3.5,77,0.00,CLR,SCT,0.00,0.0,WeatherDisplay:10.37,2013-02-07 09:11:00,
2013-02-07 03:16:00,37.8,31.2,29.88,WSW,248,3.3,5.8,77,0.00,CLR,SCT,0.00,0.0,WeatherDisplay:10.37,2013-02-07 09:16:00,
2013-02-07 03:21:00,37.8,31.2,29.91,NW,315,2.0,3.3,77,0.00,CLR,SCT,0.00,0.0,WeatherDisplay:10.37,2013-02-07 09:21:00,
2013-02-07 03:26:00,37.6,31.0,29.91,WNW,292,2.6,4.6,77,0.00,CLR,SCT,0.00,0.0,WeatherDisplay:10.37,2013-02-07 09:26:00,
2013-02-07 03:31:00,37.6,31.0,29.91,NNE,22,3.3,4.6,77,0.00,CLR,SCT,0.00,0.0,WeatherDisplay:10.37,2013-02-07 09:31:00,
2013-02-07 03:36:00,37.6,30.7,29.88,West,270,2.6,5.8,76,0.00,CLR,SCT,0.00,0.0,WeatherDisplay:10.37,2013-02-07 09:36:00,
2013-02-07 03:41:00,37.6,30.7,29.88,WNW,292,2.0,3.5,76,0.00,CLR,SCT,0.00,0.0,WeatherDisplay:10.37,2013-02-07 09:41:00,
2013-02-07 03:46:00,37.4,30.5,29.88,North,0,4.0,6.9,76,0.00,CLR,SCT,0.00,0.0,WeatherDisplay:10.37,2013-02-07 09:46:00,
2013-02-07 03:51:00,37.4,29.9,29.88,NNW,338,4.0,4.6,74,0.00,CLR,SCT,0.00,0.0,WeatherDisplay:10.37,2013-02-07 09:51:00,
2013-02-07 03:57:00,37.4,29.2,29.88,SSW,202,4.3,5.8,72,0.00,CLR,SCT,0.00,0.0,WeatherDisplay:10.37,2013-02-07 09:57:00,
2013-02-07 04:02:00,37.4,28.9,29.88,North,0,2.2,5.8,71,0.00,CLR,SCT,0.00,0.0,WeatherDisplay:10.37,2013-02-07 10:02:00,
2013-02-07 04:07:00,37.2,28.7,29.88,NNW,338,2.2,3.5,71,0.00,CLR,SCT,0.00,0.0,WeatherDisplay:10.37,2013-02-07 10:07:00,
2013-02-07 04:12:00,37.0,28.2,29.88,North,0,2.6,3.5,70,0.00,CLR,SCT,0.00,0.0,WeatherDisplay:10.37,2013-02-07 10:12:00,
2013-02-07 04:17:00,37.0,27.8,29.88,NNW,338,3.3,8.1,69,0.00,CLR,SCT,0.00,0.0,WeatherDisplay:10.37,2013-02-07 10:17:00,
2013-02-07 04:22:00,37.4,27.8,29.88,North,0,4.0,8.1,68,0.00,CLR,SCT,0.00,0.0,WeatherDisplay:10.37,2013-02-07 10:22:00,
2013-02-07 04:27:00,37.4,27.4,29.88,SSW,202,3.1,5.8,67,0.00,CLR,SCT,0.00,0.0,WeatherDisplay:10.37,2013-02-07 10:27:00,
2013-02-07 04:32:00,37.4,27.1,29.88,North,0,3.3,5.8,66,0.00,CLR,SCT,0.00,0.0,WeatherDisplay:10.37,2013-02-07 10:32:00,
2013-02-07 04:37:00,37.4,27.1,29.88,ENE,68,2.9,3.6,66,0.00,CLR,SCT,0.00,0.0,WeatherDisplay:10.37,2013-02-07 10:37:00,
2013-02-07 04:42:00,37.4,26.7,29.88,WNW,292,4.3,5.8,65,0.00,CLR,SCT,0.00,0.0,WeatherDisplay:10.37,2013-02-07 10:42:00,
2013-02-07 04:47:00,37.4,26.7,29.88,East,90,4.9,7.4,65,0.00,CLR,SCT,0.00,0.0,WeatherDisplay:10.37,2013-02-07 10:47:00,
2013-02-07 04:52:00,37.4,26.7,29.91,North,0,4.7,8.1,65,0.00,CLR,SCT,0.00,0.0,WeatherDisplay:10.37,2013-02-07 10:52:00,
2013-02-07 04:57:00,37.2,26.5,29.91,NNW,338,4.0,5.9,65,0.00,CLR,SCT,0.00,0.0,WeatherDisplay:10.37,2013-02-07 10:57:00,
2013-02-07 05:02:00,37.0,26.0,29.91,NNW,338,3.8,6.4,64,0.00,CLR,SCT,0.00,0.0,WeatherDisplay:10.37,2013-02-07 11:02:00,
2013-02-07 05:08:00,37.0,26.0,29.88,NNE,22,2.9,3.5,64,0.00,CLR,SCT,0.00,0.0,WeatherDisplay:10.37,2013-02-07 11:08:00,
2013-02-07 05:13:00,36.9,25.8,29.88,NNE,22,4.0,4.6,64,0.00,CLR,SCT,0.00,0.0,WeatherDisplay:10.37,2013-02-07 11:13:00,
2013-02-07 05:18:00,36.7,25.6,29.88,North,0,3.1,3.8,64,0.00,CLR,SCT,0.00,0.0,WeatherDisplay:10.37,2013-02-07 11:18:00,
2013-02-07 05:23:00,36.1,25.5,29.91,NNE,22,3.6,5.8,65,0.00,CLR,SCT,0.00,0.0,WeatherDisplay:10.37,2013-02-07 11:23:00,
2013-02-07 05:28:00,36.1,25.9,29.91,NNW,338,3.3,7.1,66,0.00,CLR,SCT,0.00,0.0,WeatherDisplay:10.37,2013-02-07 11:28:00,
2013-02-07 05:33:00,36.0,26.1,29.91,NNE,22,3.6,5.8,67,0.00,CLR,SCT,0.00,0.0,WeatherDisplay:10.37,2013-02-07 11:33:00,
2013-02-07 05:38:00,35.8,25.9,29.91,ENE,68,2.0,3.6,67,0.00,CLR,SCT,0.00,0.0,WeatherDisplay:10.37,2013-02-07 11:38:00,
2013-02-07 05:43:00,35.6,26.1,29.91,NNW,338,2.2,4.6,68,0.00,CLR,SCT,0.00,0.0,WeatherDisplay:10.37,2013-02-07 11:43:00,
2013-02-07 05:48:00,35.6,26.4,29.91,NNW,338,4.0,5.8,69,0.00,CLR,SCT,0.00,0.0,WeatherDisplay:10.37,2013-02-07 11:48:00,
2013-02-07 05:53:00,35.4,26.6,29.91,NNE,22,3.1,5.8,70,0.00,CLR,SCT,0.00,0.0,WeatherDisplay:10.37,2013-02-07 11:53:00,
2013-02-07 05:58:00,35.4,26.9,29.91,North,0,3.3,3.5,71,0.00,CLR,SCT,0.00,0.0,WeatherDisplay:10.37,2013-02-07 11:58:00,
2013-02-07 06:03:00,35.2,26.8,29.91,NNE,22,2.6,3.5,71,0.00,CLR,SCT,0.00,0.0,WeatherDisplay:10.37,2013-02-07 12:03:00,
2013-02-07 06:08:00,35.2,26.8,29.91,NNE,22,2.9,5.8,71,0.00,CLR,SCT,0.00,0.0,WeatherDisplay:10.37,2013-02-07 12:08:00,
2013-02-07 06:13:00,35.1,26.9,29.91,NNE,22,3.8,4.6,72,0.00,CLR,SCT,0.00,0.0,WeatherDisplay:10.37,2013-02-07 12:13:00,
2013-02-07 06:18:00,35.1,26.9,29.91,ENE,68,2.6,5.8,72,0.00,CLR,SCT,0.00,0.0,WeatherDisplay:10.37,2013-02-07 12:18:00,
2013-02-07 06:24:00,34.9,27.1,29.88,SSW,202,2.6,4.6,73,0.00,CLR,SCT,0.00,0.0,WeatherDisplay:10.37,2013-02-07 12:24:00,
2013-02-07 06:29:00,34.9,27.1,29.88,SSE,158,3.6,4.6,73,0.00,CLR,SCT,0.00,0.0,WeatherDisplay:10.37,2013-02-07 12:29:00,
2013-02-07 06:34:00,34.9,27.4,29.88,WNW,292,4.9,9.2,74,0.00,CLR,SCT,0.00,0.0,WeatherDisplay:10.37,2013-02-07 12:34:00,
2013-02-07 06:39:00,34.7,27.3,29.91,NNW,338,2.4,4.6,74,0.00,CLR,SCT,0.00,0.0,WeatherDisplay:10.37,2013-02-07 12:39:00,
2013-02-07 06:45:00,34.7,27.6,29.91,NNE,22,3.3,5.8,75,0.00,CLR,SCT,0.00,0.0,WeatherDisplay:10.37,2013-02-07 12:45:00,
2013-02-07 06:50:00,34.5,27.4,29.91,NNW,338,2.4,6.9,75,0.00,CLR,SCT,0.00,0.0,WeatherDisplay:10.37,2013-02-07 12:50:00,
2013-02-07 06:55:00,34.5,27.4,29.94,North,0,2.9,5.8,75,0.00,CLR,SCT,0.00,0.0,WeatherDisplay:10.37,2013-02-07 12:55:00,
2013-02-07 07:00:00,34.3,27.6,29.94,NNW,338,2.6,5.8,76,0.00,CLR,SCT,0.00,0.0,WeatherDisplay:10.37,2013-02-07 13:00:00,
2013-02-07 07:05:00,34.3,27.6,29.94,NNW,338,4.9,5.8,76,0.00,OVC,SCT,0.00,0.0,WeatherDisplay:10.37,2013-02-07 13:05:00,
2013-02-07 07:10:00,34.2,27.4,29.94,North,0,5.6,8.1,76,0.00,OVC,SCT,0.00,0.0,WeatherDisplay:10.37,2013-02-07 13:10:00,
2013-02-07 07:15:00,34.2,27.7,29.94,NNE,22,4.3,5.8,77,0.00,OVC,SCT,0.00,0.0,WeatherDisplay:10.37,2013-02-07 13:15:00,
2013-02-07 07:20:00,34.0,27.5,29.94,North,0,3.1,5.8,77,0.00,OVC,SCT,0.00,0.0,WeatherDisplay:10.37,2013-02-07 13:20:00,
2013-02-07 07:25:00,34.0,27.8,29.91,ESE,112,4.5,6.9,78,0.00,OVC,SCT,0.00,0.0,WeatherDisplay:10.37,2013-02-07 13:25:00,
2013-02-07 07:30:00,33.8,27.7,29.91,NNW,338,3.8,8.1,78,0.00,OVC,SCT,0.00,0.0,WeatherDisplay:10.37,2013-02-07 13:30:00,
2013-02-07 07:35:00,33.8,27.7,29.91,North,0,4.9,9.2,78,0.00,OVC,SCT,0.00,0.0,WeatherDisplay:10.37,2013-02-07 13:35:00,
2013-02-07 07:40:00,33.6,27.8,29.94,NNW,338,3.6,9.8,79,0.00,OVC,SCT,0.00,0.0,WeatherDisplay:10.37,2013-02-07 13:40:00,
2013-02-07 07:45:00,33.4,27.6,29.94,North,0,4.7,7.6,79,0.00,OVC,SCT,0.00,0.0,WeatherDisplay:10.37,2013-02-07 13:45:00,
2013-02-07 07:50:00,33.4,27.9,29.94,NNE,22,5.4,8.1,80,0.00,OVC,SCT,0.00,0.0,WeatherDisplay:10.37,2013-02-07 13:50:00,
2013-02-07 07:55:00,33.3,27.8,29.94,NNW,338,4.7,6.4,80,0.00,OVC,SCT,0.00,0.0,WeatherDisplay:10.37,2013-02-07 13:55:00,
2013-02-07 08:01:00,33.3,28.1,29.94,NNE,22,3.1,8.1,81,0.00,OVC,SCT,0.00,0.0,WeatherDisplay:10.37,2013-02-07 14:01:00,
2013-02-07 08:06:00,33.3,28.4,29.94,NNE,22,4.9,9.2,82,0.00,OVC,SCT,0.00,0.0,WeatherDisplay:10.37,2013-02-07 14:06:00,
2013-02-07 08:11:00,33.3,28.4,29.97,NNW,338,3.3,8.1,82,0.00,OVC,SCT,0.00,0.0,WeatherDisplay:10.37,2013-02-07 14:11:00,
2013-02-07 08:16:00,33.3,28.7,29.97,NNW,338,4.7,5.8,83,0.00,OVC,SCT,0.00,0.0,WeatherDisplay:10.37,2013-02-07 14:16:00,
2013-02-07 08:21:00,33.3,28.7,29.97,North,0,4.5,5.8,83,0.00,OVC,SCT,0.00,0.0,WeatherDisplay:10.37,2013-02-07 14:21:00,
2013-02-07 08:26:00,33.3,28.7,30.00,NNE,22,5.9,8.1,83,0.00,OVC,SCT,0.00,0.0,WeatherDisplay:10.37,2013-02-07 14:26:00,
2013-02-07 08:31:00,33.3,28.9,30.00,North,0,3.1,7.1,84,0.00,OVC,SCT,0.00,0.0,WeatherDisplay:10.37,2013-02-07 14:31:00,
2013-02-07 08:36:00,33.4,29.1,30.00,North,0,3.6,4.7,84,0.00,OVC,SCT,0.00,0.0,WeatherDisplay:10.37,2013-02-07 14:36:00,
2013-02-07 08:41:00,33.4,29.1,30.00,ESE,112,2.9,6.0,84,0.00,OVC,SCT,0.00,0.0,WeatherDisplay:10.37,2013-02-07 14:41:00,
2013-02-07 08:46:00,33.4,29.1,30.00,North,0,3.6,5.6,84,0.00,OVC,SCT,0.00,0.0,WeatherDisplay:10.37,2013-02-07 14:46:00,
2013-02-07 08:51:00,33.4,29.1,29.97,SSW,202,2.9,6.0,84,0.00,OVC,SCT,0.00,0.0,WeatherDisplay:10.37,2013-02-07 14:51:00,
2013-02-07 08:56:00,33.4,29.1,29.97,NW,315,4.0,8.1,84,0.00,OVC,SCT,0.00,0.0,WeatherDisplay:10.37,2013-02-07 14:56:00,
2013-02-07 09:01:00,33.4,29.1,29.97,NNE,22,4.3,6.0,84,0.00,OVC,SCT,0.00,0.0,WeatherDisplay:10.37,2013-02-07 15:01:00,
2013-02-07 09:06:00,33.6,29.3,30.00,NNW,338,2.9,3.5,84,0.00,OVC,SCT,0.00,0.0,WeatherDisplay:10.37,2013-02-07 15:06:00,
2013-02-07 09:11:00,33.6,29.3,30.00,NE,45,3.6,4.6,84,0.00,OVC,SCT,0.00,0.0,WeatherDisplay:10.37,2013-02-07 15:11:00,
2013-02-07 09:16:00,33.6,29.3,30.00,North,0,2.6,6.4,84,0.00,OVC,SCT,0.00,0.0,WeatherDisplay:10.37,2013-02-07 15:16:00,
2013-02-07 09:21:00,33.6,29.3,30.00,North,0,3.3,7.6,84,0.00,OVC,SCT,0.00,0.0,WeatherDisplay:10.37,2013-02-07 15:21:00,
2013-02-07 09:26:00,33.8,29.2,30.00,North,0,2.0,5.8,83,0.00,OVC,SCT,0.00,0.0,WeatherDisplay:10.37,2013-02-07 15:26:00,
2013-02-07 09:31:00,33.6,29.0,30.00,NNW,338,5.4,5.8,83,0.00,OVC,SCT,0.00,0.0,WeatherDisplay:10.37,2013-02-07 15:31:00,
2013-02-07 09:37:00,33.6,29.0,30.03,NNE,22,4.5,6.2,83,0.00,OVC,SCT,0.00,0.0,WeatherDisplay:10.37,2013-02-07 15:37:00,
2013-02-07 09:42:00,33.6,28.1,30.03,SW,225,6.4,8.1,80,0.00,OVC,SCT,0.00,0.0,WeatherDisplay:10.37,2013-02-07 15:42:00,
2013-02-07 09:47:00,33.6,27.8,30.03,NNE,22,4.7,8.1,79,0.00,OVC,SCT,0.00,0.0,WeatherDisplay:10.37,2013-02-07 15:47:00,
2013-02-07 09:52:00,33.6,27.8,30.06,NNE,22,6.0,9.2,79,0.00,OVC,SCT,0.00,0.0,WeatherDisplay:10.37,2013-02-07 15:52:00,
2013-02-07 09:57:00,33.8,27.7,30.06,North,0,7.4,11.5,78,0.00,OVC,SCT,0.00,0.0,WeatherDisplay:10.37,2013-02-07 15:57:00,
2013-02-07 10:02:00,33.8,27.4,30.06,NE,45,4.5,6.9,77,0.00,OVC,SCT,0.00,0.0,WeatherDisplay:10.37,2013-02-07 16:02:00,
2013-02-07 10:07:00,33.6,27.2,30.06,North,0,4.9,10.4,77,0.00,OVC,SCT,0.00,0.0,WeatherDisplay:10.37,2013-02-07 16:07:00,
2013-02-07 10:12:00,33.8,27.4,30.06,North,0,6.9,10.5,77,0.00,OVC,SCT,0.00,0.0,WeatherDisplay:10.37,2013-02-07 16:12:00,
2013-02-07 10:17:00,34.0,27.5,30.06,WNW,292,7.6,10.4,77,0.00,OVC,SCT,0.00,0.0,WeatherDisplay:10.37,2013-02-07 16:17:00,
2013-02-07 10:22:00,34.0,27.5,30.06,NNW,338,4.9,8.1,77,0.00,OVC,SCT,0.00,0.0,WeatherDisplay:10.37,2013-02-07 16:22:00,
2013-02-07 10:27:00,34.0,27.5,30.06,SSE,158,4.7,9.2,77,0.00,OVC,SCT,0.00,0.0,WeatherDisplay:10.37,2013-02-07 16:27:00,
2013-02-07 10:32:00,33.8,27.4,30.06,ENE,68,5.6,8.1,77,0.00,OVC,SCT,0.00,0.0,WeatherDisplay:10.37,2013-02-07 16:32:00,
2013-02-07 10:37:00,33.6,27.5,30.06,NNW,338,4.0,6.9,78,0.00,OVC,SCT,0.00,0.0,WeatherDisplay:10.37,2013-02-07 16:37:00,
2013-02-07 10:42:00,33.4,27.6,30.06,NNE,22,4.3,5.6,79,0.00,OVC,SCT,0.00,0.0,WeatherDisplay:10.37,2013-02-07 16:42:00,
2013-02-07 10:47:00,33.1,27.6,30.06,WSW,248,5.4,8.1,80,0.00,OVC,SCT,0.00,0.0,WeatherDisplay:10.37,2013-02-07 16:47:00,
2013-02-07 10:52:00,33.1,27.6,30.03,NNE,22,5.9,7.6,80,0.00,OVC,SCT,0.00,0.0,WeatherDisplay:10.37,2013-02-07 16:52:00,
2013-02-07 10:57:00,32.9,27.7,30.03,WSW,248,4.9,7.6,81,0.00,OVC,SCT,0.00,0.0,WeatherDisplay:10.37,2013-02-07 16:57:00,
2013-02-07 11:02:00,32.9,27.7,30.03,NNE,22,4.0,8.1,81,0.00,OVC,SCT,0.00,0.0,WeatherDisplay:10.37,2013-02-07 17:02:00,
2013-02-07 11:08:00,33.1,28.2,30.03,North,0,6.0,12.7,82,0.00,OVC,SCT,0.00,0.0,WeatherDisplay:10.37,2013-02-07 17:08:00,
2013-02-07 11:13:00,33.1,27.9,30.03,NE,45,5.6,9.2,81,0.00,OVC,SCT,0.00,0.0,WeatherDisplay:10.37,2013-02-07 17:13:00,
2013-02-07 11:18:00,33.1,27.6,30.03,North,0,3.6,5.8,80,0.00,OVC,SCT,0.00,0.0,WeatherDisplay:10.37,2013-02-07 17:18:00,
2013-02-07 11:23:00,32.9,27.1,30.06,West,270,5.9,9.2,79,0.00,OVC,SCT,0.00,0.0,WeatherDisplay:10.37,2013-02-07 17:23:00,
2013-02-07 11:28:00,32.9,27.4,30.06,SSW,202,5.9,9.2,80,0.00,OVC,SCT,0.00,0.0,WeatherDisplay:10.37,2013-02-07 17:28:00,
2013-02-07 11:33:00,32.9,27.1,30.06,NNE,22,6.4,11.5,79,0.00,OVC,SCT,0.00,0.0,WeatherDisplay:10.37,2013-02-07 17:33:00,
2013-02-07 11:38:00,32.9,27.4,30.06,NNE,22,4.7,8.1,80,0.00,OVC,SCT,0.00,0.0,WeatherDisplay:10.37,2013-02-07 17:38:00,
2013-02-07 11:43:00,32.9,27.1,30.06,North,0,5.4,9.2,79,0.00,OVC,SCT,0.00,0.0,WeatherDisplay:10.37,2013-02-07 17:43:00,
2013-02-07 11:48:00,32.9,26.8,30.06,NNW,338,3.6,8.1,78,0.00,OVC,SCT,0.00,0.0,WeatherDisplay:10.37,2013-02-07 17:48:00,
2013-02-07 11:54:00,32.7,26.6,30.06,NNW,338,6.0,6.9,78,0.00,OVC,SCT,0.00,0.0,WeatherDisplay:10.37,2013-02-07 17:54:00,
2013-02-07 11:59:00,32.7,26.3,30.06,ENE,68,3.3,8.7,77,0.00,OVC,SCT,0.00,0.0,WeatherDisplay:10.37,2013-02-07 17:59:00,
2013-02-07 12:04:00,32.7,26.3,30.06,NW,315,4.7,10.4,77,0.00,OVC,SCT,0.00,0.0,WeatherDisplay:10.37,2013-02-07 18:04:00,
2013-02-07 12:09:00,32.7,26.3,30.06,NNE,22,3.6,8.1,77,0.00,OVC,SCT,0.00,0.0,WeatherDisplay:10.37,2013-02-07 18:09:00,
2013-02-07 12:14:00,32.7,26.0,30.06,NNW,338,4.5,6.9,76,0.00,OVC,SCT,0.00,0.0,WeatherDisplay:10.37,2013-02-07 18:14:00,
2013-02-07 12:19:00,32.7,25.7,30.06,NNE,22,6.2,10.4,75,0.00,OVC,SCT,0.00,0.0,WeatherDisplay:10.37,2013-02-07 18:19:00,
2013-02-07 12:24:00,32.7,26.0,30.06,North,0,5.4,8.1,76,0.00,OVC,SCT,0.00,0.0,WeatherDisplay:10.37,2013-02-07 18:24:00,
2013-02-07 12:29:00,32.7,26.0,30.06,North,0,5.4,10.4,76,0.00,OVC,SCT,0.00,0.0,WeatherDisplay:10.37,2013-02-07 18:29:00,
2013-02-07 12:34:00,32.7,25.7,30.06,North,0,5.9,9.8,75,0.00,OVC,SCT,0.00,0.0,WeatherDisplay:10.37,2013-02-07 18:34:00,
2013-02-07 12:39:00,32.7,26.0,30.06,NNW,338,3.1,6.0,76,0.00,OVC,SCT,0.00,0.0,WeatherDisplay:10.37,2013-02-07 18:39:00,
2013-02-07 12:44:00,32.7,25.7,30.06,NNE,22,5.6,11.8,75,0.00,OVC,SCT,0.00,0.0,WeatherDisplay:10.37,2013-02-07 18:44:00,
2013-02-07 12:49:00,32.7,25.7,30.06,North,0,4.0,10.4,75,0.00,OVC,SCT,0.00,0.0,WeatherDisplay:10.37,2013-02-07 18:49:00,
2013-02-07 12:54:00,32.7,25.7,30.03,North,0,4.5,8.1,75,0.00,OVC,SCT,0.00,0.0,WeatherDisplay:10.37,2013-02-07 18:54:00,
2013-02-07 12:59:00,32.7,25.7,30.03,North,0,4.9,9.2,75,0.00,OVC,SCT,0.00,0.0,WeatherDisplay:10.37,2013-02-07 18:59:00,
2013-02-07 13:05:00,32.7,25.7,30.03,NNW,338,3.1,8.1,75,0.00,OVC,SCT,0.00,0.0,WeatherDisplay:10.37,2013-02-07 19:05:00,
2013-02-07 13:10:00,32.7,25.7,30.06,North,0,4.5,11.5,75,0.00,OVC,SCT,0.00,0.0,WeatherDisplay:10.37,2013-02-07 19:10:00,
2013-02-07 13:15:00,32.7,25.3,30.06,West,270,4.0,5.8,74,0.00,OVC,SCT,0.00,0.0,WeatherDisplay:10.37,2013-02-07 19:15:00,
2013-02-07 13:20:00,32.7,25.3,30.06,ESE,112,5.9,8.1,74,0.00,OVC,SCT,0.00,0.0,WeatherDisplay:10.37,2013-02-07 19:20:00,
2013-02-07 13:25:00,32.5,24.5,30.06,NNE,22,6.2,9.8,72,0.00,OVC,SCT,0.00,0.0,WeatherDisplay:10.37,2013-02-07 19:25:00,
2013-02-07 13:30:00,32.5,24.5,30.06,SSW,202,3.8,6.9,72,0.00,OVC,SCT,0.00,0.0,WeatherDisplay:10.37,2013-02-07 19:30:00,
2013-02-07 13:35:00,32.5,24.5,30.06,NNE,22,4.5,6.4,72,0.00,OVC,SCT,0.00,0.0,WeatherDisplay:10.37,2013-02-07 19:35:00,
2013-02-07 13:40:00,32.5,24.5,30.06,ENE,68,6.2,9.2,72,0.00,OVC,SCT,0.00,0.0,WeatherDisplay:10.37,2013-02-07 19:40:00,
2013-02-07 13:45:00,32.5,24.5,30.06,East,90,2.9,8.1,72,0.00,OVC,SCT,0.00,0.0,WeatherDisplay:10.37,2013-02-07 19:45:00,
2013-02-07 13:51:00,32.5,24.5,30.06,NNE,22,3.1,5.8,72,0.00,OVC,SCT,0.00,0.0,WeatherDisplay:10.37,2013-02-07 19:51:00,
2013-02-07 13:56:00,32.7,24.7,30.06,NNE,22,2.2,5.8,72,0.00,OVC,SCT,0.00,0.0,WeatherDisplay:10.37,2013-02-07 19:56:00,
2013-02-07 14:01:00,32.7,24.3,30.06,East,90,6.9,8.1,71,0.00,OVC,SCT,0.00,0.0,WeatherDisplay:10.37,2013-02-07 20:01:00,
2013-02-07 14:06:00,32.5,23.8,30.06,NE,45,7.6,10.4,70,0.00,OVC,SCT,0.00,0.0,WeatherDisplay:10.37,2013-02-07 20:06:00,
2013-02-07 14:11:00,32.7,24.0,30.06,North,0,2.9,5.8,70,0.00,OVC,SCT,0.00,0.0,WeatherDisplay:10.37,2013-02-07 20:11:00,
2013-02-07 14:16:00,32.7,24.3,30.06,SE,135,4.9,5.8,71,0.00,OVC,SCT,0.00,0.0,WeatherDisplay:10.37,2013-02-07 20:16:00,
2013-02-07 14:21:00,32.7,24.0,30.06,WSW,248,5.6,8.5,70,0.00,OVC,SCT,0.00,0.0,WeatherDisplay:10.37,2013-02-07 20:21:00,
2013-02-07 14:26:00,32.7,24.0,30.06,NW,315,4.7,9.2,70,0.00,OVC,SCT,0.00,0.0,WeatherDisplay:10.37,2013-02-07 20:26:00,
2013-02-07 14:31:00,32.7,24.0,30.06,NE,45,5.9,11.5,70,0.00,OVC,SCT,0.00,0.0,WeatherDisplay:10.37,2013-02-07 20:31:00,
2013-02-07 14:36:00,32.7,24.0,30.06,North,0,4.7,11.5,70,0.00,OVC,SCT,0.00,0.0,WeatherDisplay:10.37,2013-02-07 20:36:00,
2013-02-07 14:42:00,32.7,24.0,30.06,NNW,338,4.0,5.8,70,0.00,OVC,SCT,0.00,0.0,WeatherDisplay:10.37,2013-02-07 20:42:00,
2013-02-07 14:47:00,32.7,23.3,30.06,WNW,292,5.6,6.9,68,0.00,OVC,SCT,0.00,0.0,WeatherDisplay:10.37,2013-02-07 20:47:00,
2013-02-07 14:52:00,32.5,23.1,30.06,NNE,22,5.9,9.2,68,0.00,OVC,SCT,0.00,0.0,WeatherDisplay:10.37,2013-02-07 20:52:00,
2013-02-07 14:57:00,32.5,23.1,30.06,WNW,292,4.7,10.5,68,0.00,OVC,SCT,0.00,0.0,WeatherDisplay:10.37,2013-02-07 20:57:00,
2013-02-07 15:02:00,32.7,23.7,30.06,NNE,22,5.4,6.9,69,0.00,OVC,SCT,0.00,0.0,WeatherDisplay:10.37,2013-02-07 21:02:00,
2013-02-07 15:07:00,32.5,23.1,30.06,NW,315,4.7,5.9,68,0.00,OVC,SCT,0.00,0.0,WeatherDisplay:10.37,2013-02-07 21:07:00,
2013-02-07 15:12:00,32.5,23.1,30.06,North,0,4.3,7.6,68,0.00,OVC,SCT,0.00,0.0,WeatherDisplay:10.37,2013-02-07 21:12:00,
2013-02-07 15:17:00,32.5,23.1,30.06,NNW,338,4.5,8.1,68,0.00,OVC,SCT,0.00,0.0,WeatherDisplay:10.37,2013-02-07 21:17:00,
2013-02-07 15:23:00,32.5,22.8,30.06,SSE,158,6.0,9.2,67,0.00,OVC,SCT,0.00,0.0,WeatherDisplay:10.37,2013-02-07 21:23:00,
2013-02-07 15:28:00,32.5,22.8,30.06,WNW,292,6.0,10.4,67,0.00,OVC,SCT,0.00,0.0,WeatherDisplay:10.37,2013-02-07 21:28:00,
2013-02-07 15:33:00,32.5,22.8,30.06,South,180,4.0,6.9,67,0.00,OVC,SCT,0.00,0.0,WeatherDisplay:10.37,2013-02-07 21:33:00,
2013-02-07 15:38:00,32.5,22.8,30.06,NNW,338,4.7,8.1,67,0.00,OVC,SCT,0.00,0.0,WeatherDisplay:10.37,2013-02-07 21:38:00,
2013-02-07 15:43:00,32.5,22.8,30.06,NNE,22,3.8,8.1,67,0.00,OVC,SCT,0.00,0.0,WeatherDisplay:10.37,2013-02-07 21:43:00,
2013-02-07 15:48:00,32.5,22.4,30.06,NNE,22,4.5,6.9,66,0.00,OVC,SCT,0.00,0.0,WeatherDisplay:10.37,2013-02-07 21:48:00,
2013-02-07 15:53:00,32.5,22.4,30.06,South,180,6.4,9.2,66,0.00,OVC,SCT,0.00,0.0,WeatherDisplay:10.37,2013-02-07 21:53:00,
2013-02-07 15:58:00,32.5,22.1,30.06,North,0,6.2,9.8,65,0.00,OVC,SCT,0.00,0.0,WeatherDisplay:10.37,2013-02-07 21:58:00,
2013-02-07 16:03:00,32.5,22.1,30.06,ESE,112,2.6,5.8,65,0.00,OVC,SCT,0.00,0.0,WeatherDisplay:10.37,2013-02-07 22:03:00,
2013-02-07 16:08:00,32.5,21.7,30.06,NE,45,4.3,9.2,64,0.00,OVC,SCT,0.00,0.0,WeatherDisplay:10.37,2013-02-07 22:08:00,
2013-02-07 16:13:00,32.5,21.3,30.06,North,0,4.5,11.5,63,0.00,OVC,SCT,0.00,0.0,WeatherDisplay:10.37,2013-02-07 22:13:00,
2013-02-07 16:18:00,32.5,21.7,30.06,North,0,6.2,8.1,64,0.00,OVC,SCT,0.00,0.0,WeatherDisplay:10.37,2013-02-07 22:18:00,
2013-02-07 16:24:00,32.4,21.5,30.06,NNE,22,3.3,5.8,64,0.00,OVC,SCT,0.00,0.0,WeatherDisplay:10.37,2013-02-07 22:24:00,
2013-02-07 16:29:00,32.2,21.4,30.06,NNE,22,4.5,6.9,64,0.00,OVC,SCT,0.00,0.0,WeatherDisplay:10.37,2013-02-07 22:29:00,
2013-02-07 16:34:00,32.2,21.4,30.06,NNE,22,4.3,8.1,64,0.00,OVC,SCT,0.00,0.0,WeatherDisplay:10.37,2013-02-07 22:34:00,
2013-02-07 16:39:00,32.2,21.4,30.06,ENE,68,5.4,10.4,64,0.00,OVC,SCT,0.00,0.0,WeatherDisplay:10.37,2013-02-07 22:39:00,
2013-02-07 16:44:00,32.2,21.7,30.06,North,0,3.3,6.9,65,0.00,OVC,SCT,0.00,0.0,WeatherDisplay:10.37,2013-02-07 22:44:00,
2013-02-07 16:49:00,32.0,21.6,30.06,East,90,3.3,6.9,65,0.00,OVC,SCT,0.00,0.0,WeatherDisplay:10.37,2013-02-07 22:49:00,
2013-02-07 16:54:00,32.0,21.6,30.06,WSW,248,4.7,8.1,65,0.00,OVC,SCT,0.00,0.0,WeatherDisplay:10.37,2013-02-07 22:54:00,
2013-02-07 16:59:00,32.0,21.9,30.06,North,0,2.4,5.8,66,0.00,OVC,SCT,0.00,0.0,WeatherDisplay:10.37,2013-02-07 22:59:00,
2013-02-07 17:04:00,32.0,21.9,30.06,North,0,6.0,7.6,66,0.00,OVC,SCT,0.00,0.0,WeatherDisplay:10.37,2013-02-07 23:04:00,
2013-02-07 17:09:00,31.8,21.7,30.06,NNW,338,4.0,5.8,66,0.00,OVC,SCT,0.00,0.0,WeatherDisplay:10.37,2013-02-07 23:09:00,
2013-02-07 17:14:00,31.6,21.2,30.06,NNE,22,6.4,6.9,65,0.00,OVC,SCT,0.00,0.0,WeatherDisplay:10.37,2013-02-07 23:14:00,
2013-02-07 17:19:00,31.5,20.3,30.06,WNW,292,5.9,8.1,63,0.00,OVC,SCT,0.00,0.0,WeatherDisplay:10.37,2013-02-07 23:19:00,
2013-02-07 17:24:00,31.3,20.5,30.09,North,0,5.6,8.7,64,0.00,OVC,SCT,0.00,0.0,WeatherDisplay:10.37,2013-02-07 23:24:00,
2013-02-07 17:30:00,31.3,20.5,30.09,WNW,292,2.9,8.1,64,0.00,OVC,SCT,0.00,0.0,WeatherDisplay:10.37,2013-02-07 23:30:00,
2013-02-07 17:35:00,31.3,20.9,30.09,North,0,3.1,5.8,65,0.00,OVC,SCT,0.00,0.0,WeatherDisplay:10.37,2013-02-07 23:35:00,
2013-02-07 17:40:00,31.3,20.9,30.09,NE,45,2.4,5.4,65,0.00,OVC,SCT,0.00,0.0,WeatherDisplay:10.37,2013-02-07 23:40:00,
2013-02-07 17:45:00,31.1,20.3,30.09,SSE,158,3.6,4.6,64,0.00,OVC,SCT,0.00,0.0,WeatherDisplay:10.37,2013-02-07 23:45:00,
2013-02-07 17:50:00,31.1,20.3,30.09,North,0,6.4,11.5,64,0.00,OVC,SCT,0.00,0.0,WeatherDisplay:10.37,2013-02-07 23:50:00,
2013-02-07 17:56:00,30.9,20.2,30.09,North,0,4.5,5.8,64,0.00,OVC,SCT,0.00,0.0,WeatherDisplay:10.37,2013-02-07 23:56:00,
2013-02-07 18:01:00,30.7,20.0,30.09,NNE,22,5.6,9.2,64,0.00,CLR,SCT,0.00,0.0,WeatherDisplay:10.37,2013-02-08 00:01:00,
2013-02-07 18:06:00,30.6,19.5,30.12,NNE,22,4.3,5.8,63,0.00,CLR,SCT,0.00,0.0,WeatherDisplay:10.37,2013-02-08 00:06:00,
2013-02-07 18:11:00,30.6,19.5,30.12,North,0,4.0,6.0,63,0.00,CLR,SCT,0.00,0.0,WeatherDisplay:10.37,2013-02-08 00:11:00,
2013-02-07 18:16:00,30.4,19.6,30.12,West,270,4.5,6.0,64,0.00,CLR,SCT,0.00,0.0,WeatherDisplay:10.37,2013-02-08 00:16:00,
2013-02-07 18:21:00,30.4,19.6,30.12,NNW,338,2.9,3.5,64,0.00,CLR,SCT,0.00,0.0,WeatherDisplay:10.37,2013-02-08 00:21:00,
2013-02-07 18:26:00,30.4,19.6,30.12,North,0,4.9,9.2,64,0.00,CLR,SCT,0.00,0.0,WeatherDisplay:10.37,2013-02-08 00:26:00,
2013-02-07 18:31:00,30.4,19.3,30.12,NNE,22,5.6,5.8,63,0.00,CLR,SCT,0.00,0.0,WeatherDisplay:10.37,2013-02-08 00:31:00,
2013-02-07 18:36:00,30.4,19.6,30.12,NNE,22,3.1,3.5,64,0.00,CLR,SCT,0.00,0.0,WeatherDisplay:10.37,2013-02-08 00:36:00,
2013-02-07 18:41:00,30.4,19.6,30.12,NNW,338,3.8,4.6,64,0.00,CLR,SCT,0.00,0.0,WeatherDisplay:10.37,2013-02-08 00:41:00,
2013-02-07 18:46:00,30.4,19.6,30.12,NW,315,4.3,5.8,64,0.00,CLR,SCT,0.00,0.0,WeatherDisplay:10.37,2013-02-08 00:46:00,
2013-02-07 18:51:00,30.6,19.8,30.12,NNW,338,3.3,5.9,64,0.00,CLR,SCT,0.00,0.0,WeatherDisplay:10.37,2013-02-08 00:51:00,
2013-02-07 18:56:00,30.6,20.2,30.12,North,0,3.1,4.6,65,0.00,CLR,SCT,0.00,0.0,WeatherDisplay:10.37,2013-02-08 00:56:00,
2013-02-07 19:02:00,30.6,19.8,30.12,North,0,2.9,5.8,64,0.00,CLR,SCT,0.00,0.0,WeatherDisplay:10.37,2013-02-08 01:02:00,
2013-02-07 19:07:00,30.6,19.8,30.12,NE,45,3.3,5.8,64,0.00,CLR,SCT,0.00,0.0,WeatherDisplay:10.37,2013-02-08 01:07:00,
2013-02-07 19:12:00,30.4,19.6,30.12,NNE,22,5.6,6.9,64,0.00,CLR,SCT,0.00,0.0,WeatherDisplay:10.37,2013-02-08 01:12:00,
2013-02-07 19:17:00,30.4,19.6,30.12,SE,135,3.1,4.9,64,0.00,CLR,SCT,0.00,0.0,WeatherDisplay:10.37,2013-02-08 01:17:00,
2013-02-07 19:22:00,30.4,19.6,30.12,SSE,158,4.7,5.8,64,0.00,CLR,SCT,0.00,0.0,WeatherDisplay:10.37,2013-02-08 01:22:00,
2013-02-07 19:27:00,30.4,19.6,30.12,NNW,338,3.8,4.6,64,0.00,CLR,SCT,0.00,0.0,WeatherDisplay:10.37,2013-02-08 01:27:00,
2013-02-07 19:33:00,30.2,19.5,30.12,ESE,112,4.7,9.2,64,0.00,CLR,SCT,0.00,0.0,WeatherDisplay:10.37,2013-02-08 01:33:00,
2013-02-07 19:38:00,30.2,19.5,30.15,NNE,22,6.4,6.4,64,0.00,CLR,SCT,0.00,0.0,WeatherDisplay:10.37,2013-02-08 01:38:00,
2013-02-07 19:43:00,30.2,19.5,30.15,NNW,338,3.3,4.6,64,0.00,CLR,SCT,0.00,0.0,WeatherDisplay:10.37,2013-02-08 01:43:00,
2013-02-07 19:48:00,30.2,19.8,30.15,NNW,338,4.3,8.1,65,0.00,CLR,SCT,0.00,0.0,WeatherDisplay:10.37,2013-02-08 01:48:00,
2013-02-07 19:53:00,30.2,20.2,30.18,NNE,22,4.9,8.1,66,0.00,CLR,SCT,0.00,0.0,WeatherDisplay:10.37,2013-02-08 01:53:00,
2013-02-07 19:58:00,30.2,20.2,30.18,WNW,292,3.8,5.8,66,0.00,CLR,SCT,0.00,0.0,WeatherDisplay:10.37,2013-02-08 01:58:00,
2013-02-07 20:03:00,30.2,20.2,30.18,NNE,22,4.9,8.1,66,0.00,CLR,SCT,0.00,0.0,WeatherDisplay:10.37,2013-02-08 02:03:00,
2013-02-07 20:08:00,30.2,20.2,30.18,ENE,68,4.0,5.8,66,0.00,CLR,SCT,0.00,0.0,WeatherDisplay:10.37,2013-02-08 02:08:00,
2013-02-07 20:13:00,30.2,20.2,30.18,NNW,338,4.0,8.1,66,0.00,CLR,SCT,0.00,0.0,WeatherDisplay:10.37,2013-02-08 02:13:00,
2013-02-07 20:18:00,30.2,20.2,30.18,NNE,22,5.4,6.9,66,0.00,CLR,SCT,0.00,0.0,WeatherDisplay:10.37,2013-02-08 02:18:00,
2013-02-07 20:23:00,30.2,20.2,30.18,North,0,3.3,5.8,66,0.00,CLR,SCT,0.00,0.0,WeatherDisplay:10.37,2013-02-08 02:23:00,
2013-02-07 20:28:00,30.2,20.6,30.18,ESE,112,2.9,3.5,67,0.00,CLR,SCT,0.00,0.0,WeatherDisplay:10.37,2013-02-08 02:28:00,
2013-02-07 20:33:00,30.2,20.6,30.18,North,0,3.8,5.6,67,0.00,CLR,SCT,0.00,0.0,WeatherDisplay:10.37,2013-02-08 02:33:00,
2013-02-07 20:39:00,30.4,20.7,30.18,NNE,22,2.2,4.0,67,0.00,CLR,SCT,0.00,0.0,WeatherDisplay:10.37,2013-02-08 02:39:00,
2013-02-07 20:44:00,30.2,20.2,30.18,ENE,68,3.6,6.0,66,0.00,CLR,SCT,0.00,0.0,WeatherDisplay:10.37,2013-02-08 02:44:00,
2013-02-07 20:49:00,30.2,19.8,30.18,NNW,338,3.1,6.9,65,0.00,CLR,SCT,0.00,0.0,WeatherDisplay:10.37,2013-02-08 02:49:00,
2013-02-07 20:54:00,30.2,19.8,30.18,South,180,4.0,8.1,65,0.00,CLR,SCT,0.00,0.0,WeatherDisplay:10.37,2013-02-08 02:54:00,
2013-02-07 20:59:00,30.2,19.8,30.18,NNW,338,2.4,4.6,65,0.00,CLR,SCT,0.00,0.0,WeatherDisplay:10.37,2013-02-08 02:59:00,
2013-02-07 21:04:00,30.2,20.2,30.18,NNW,338,2.9,4.7,66,0.00,CLR,SCT,0.00,0.0,WeatherDisplay:10.37,2013-02-08 03:04:00,
2013-02-07 21:09:00,30.2,20.2,30.18,North,0,2.6,3.5,66,0.00,CLR,SCT,0.00,0.0,WeatherDisplay:10.37,2013-02-08 03:09:00,
2013-02-07 21:14:00,30.0,20.0,30.18,ENE,68,2.9,4.6,66,0.00,CLR,SCT,0.00,0.0,WeatherDisplay:10.37,2013-02-08 03:14:00,
2013-02-07 21:19:00,30.0,20.0,30.18,NNW,338,3.8,4.6,66,0.00,CLR,SCT,0.00,0.0,WeatherDisplay:10.37,2013-02-08 03:19:00,
2013-02-07 21:24:00,30.0,20.0,30.18,ESE,112,2.6,4.6,66,0.00,CLR,SCT,0.00,0.0,WeatherDisplay:10.37,2013-02-08 03:24:00,
2013-02-07 21:29:00,29.8,19.1,30.18,NNE,22,3.8,5.8,64,0.00,CLR,SCT,0.00,0.0,WeatherDisplay:10.37,2013-02-08 03:29:00,
2013-02-07 21:35:00,29.7,18.6,30.18,North,0,2.9,5.8,63,0.00,CLR,SCT,0.00,0.0,WeatherDisplay:10.37,2013-02-08 03:35:00,
2013-02-07 21:40:00,29.7,18.6,30.18,WNW,292,3.8,5.8,63,0.00,CLR,SCT,0.00,0.0,WeatherDisplay:10.37,2013-02-08 03:40:00,
2013-02-07 21:45:00,29.5,18.4,30.18,SSW,202,2.9,6.9,63,0.00,CLR,SCT,0.00,0.0,WeatherDisplay:10.37,2013-02-08 03:45:00,
2013-02-07 21:50:00,29.5,18.4,30.18,NNE,22,4.3,5.8,63,0.00,CLR,SCT,0.00,0.0,WeatherDisplay:10.37,2013-02-08 03:50:00,
2013-02-07 21:55:00,29.5,18.4,30.18,North,0,3.3,8.1,63,0.00,CLR,SCT,0.00,0.0,WeatherDisplay:10.37,2013-02-08 03:55:00,
2013-02-07 22:00:00,29.5,18.8,30.18,NNE,22,2.6,4.6,64,0.00,CLR,SCT,0.00,0.0,WeatherDisplay:10.37,2013-02-08 04:00:00,
2013-02-07 22:05:00,29.5,18.8,30.18,North,0,2.2,5.9,64,0.00,CLR,SCT,0.00,0.0,WeatherDisplay:10.37,2013-02-08 04:05:00,
2013-02-07 22:10:00,29.5,18.8,30.18,WNW,292,2.9,3.5,64,0.00,CLR,SCT,0.00,0.0,WeatherDisplay:10.37,2013-02-08 04:10:00,
2013-02-07 22:16:00,29.5,19.2,30.18,NNW,338,2.6,4.6,65,0.00,CLR,SCT,0.00,0.0,WeatherDisplay:10.37,2013-02-08 04:16:00,
2013-02-07 22:21:00,29.3,19.0,30.21,NNE,22,1.6,2.3,65,0.00,CLR,SCT,0.00,0.0,WeatherDisplay:10.37,2013-02-08 04:21:00,
2013-02-07 22:26:00,29.3,18.6,30.21,NNE,22,3.3,5.8,64,0.00,CLR,SCT,0.00,0.0,WeatherDisplay:10.37,2013-02-08 04:26:00,
2013-02-07 22:31:00,29.1,18.5,30.21,NNE,22,2.2,4.6,64,0.00,CLR,SCT,0.00,0.0,WeatherDisplay:10.37,2013-02-08 04:31:00,
2013-02-07 22:36:00,29.1,18.1,30.18,SE,135,4.7,5.8,63,0.00,CLR,SCT,0.00,0.0,WeatherDisplay:10.37,2013-02-08 04:36:00,
2013-02-07 22:41:00,29.1,17.7,30.18,North,0,3.1,5.8,62,0.00,CLR,SCT,0.00,0.0,WeatherDisplay:10.37,2013-02-08 04:41:00,
2013-02-07 22:46:00,29.1,18.1,30.18,SSE,158,2.9,5.8,63,0.00,CLR,SCT,0.00,0.0,WeatherDisplay:10.37,2013-02-08 04:46:00,
2013-02-07 22:51:00,28.9,17.9,30.18,SSE,158,2.2,4.6,63,0.00,CLR,SCT,0.00,0.0,WeatherDisplay:10.37,2013-02-08 04:51:00,
2013-02-07 22:56:00,28.9,17.9,30.18,North,0,3.6,7.4,63,0.00,CLR,SCT,0.00,0.0,WeatherDisplay:10.37,2013-02-08 04:56:00,
2013-02-07 23:00:00,28.9,17.5,30.18,WNW,292,2.0,4.6,62,0.00,CLR,SCT,0.00,0.0,WeatherDisplay:10.37,2013-02-08 05:00:00,
2013-02-07 23:01:00,28.9,17.5,30.18,NNW,338,3.6,4.6,62,0.00,CLR,SCT,0.00,0.0,WeatherDisplay:10.37,2013-02-08 05:01:00,
2013-02-07 23:06:00,28.9,17.5,30.18,NNE,22,3.3,5.8,62,0.00,CLR,SCT,0.00,0.0,WeatherDisplay:10.37,2013-02-08 05:06:00,
2013-02-07 23:12:00,28.9,17.5,30.18,North,0,2.2,4.6,62,0.00,CLR,SCT,0.00,0.0,WeatherDisplay:10.37,2013-02-08 05:12:00,
2013-02-07 23:16:00,28.9,17.5,30.18,North,0,2.0,3.6,62,0.00,CLR,SCT,0.00,0.0,WeatherDisplay:10.37,2013-02-08 05:16:00,
2013-02-07 23:22:00,28.9,17.5,30.21,NNE,22,1.4,2.3,62,0.00,CLR,SCT,0.00,0.0,WeatherDisplay:10.37,2013-02-08 05:22:00,
2013-02-07 23:27:00,29.1,17.7,30.21,NNW,338,2.2,3.5,62,0.00,CLR,SCT,0.00,0.0,WeatherDisplay:10.37,2013-02-08 05:27:00,
2013-02-07 23:32:00,29.1,17.7,30.21,WSW,248,2.9,3.5,62,0.00,CLR,SCT,0.00,0.0,WeatherDisplay:10.37,2013-02-08 05:32:00,
2013-02-07 23:37:00,28.9,17.5,30.21,North,0,2.0,4.7,62,0.00,CLR,SCT,0.00,0.0,WeatherDisplay:10.37,2013-02-08 05:37:00,
2013-02-07 23:42:00,28.9,17.5,30.21,North,0,3.1,4.6,62,0.00,CLR,SCT,0.00,0.0,WeatherDisplay:10.37,2013-02-08 05:42:00,
2013-02-07 23:47:00,28.9,17.5,30.21,North,0,2.4,2.6,62,0.00,CLR,SCT,0.00,0.0,WeatherDisplay:10.37,2013-02-08 05:47:00,
2013-02-07 23:52:00,28.9,17.2,30.21,NNW,338,2.2,2.4,61,0.00,CLR,SCT,0.00,0.0,WeatherDisplay:10.37,2013-02-08 05:52:00,
2013-02-07 23:57:00,28.8,17.0,30.21,North,0,2.0,3.5,61,0.00,CLR,SCT,0.00,0.0,WeatherDisplay:10.37,2013-02-08 05:57:00,